User: anonymous   Login
Location: The D'Auria's Ocala Star Observatory
(29.0276°N, 82.1742°W)
Time: 03:22:06
(UTC-04:00)
Language:

Abrixas rocket - Orbit

View from above orbital plane
View from above orbital plane
View from above satellite
View from above satellite

Ground track
Ground track

The orbit data is extracted from the following two-line orbital elements,

1 25723U 99022C   16211.14991082  .00003793  00000-0  76067-4 0  9998
2 25723  48.4186  83.6495 0011891 278.0599 222.0695 15.49127112956332
Epoch (UTC): 29 July 2016 03:35:52
Eccentricity: 0.0011891
inclination: 48.4186°
perigee height: 411 km
apogee height: 427 km
right ascension of ascending node: 83.6495°
argument of perigee: 278.0599°
revolutions per day: 15.49127112
mean anomaly at epoch: 222.0695°
orbit number at epoch: 95633

The dashed part of the orbit path shows where the satellite is in the earth's shadow,  

DLR